Location: Wapato
(46.4478°N, 120.4212°W)
Time: 00:29:13
(UTC+00:00)

Envisat - Visible Passes

Search period start: 17 April 2026 00:00
Search period end: 27 April 2026 00:00
Orbit: 761 x 762 km, 98.4° (Epoch: 16 April)

Date Brightness Start Highest point End Pass type
(mag) Time Alt. Az. Time Alt. Az. Time Alt. Az.
17 Apr 4.1 10:06:25 10° NNE 10:11:07 37° E 10:12:35 30° SE visible
17 Apr 3.9 11:45:30 10° N 11:49:57 31° WNW 11:52:43 19° WSW visible
18 Apr 5.1 09:29:35 10° NE 09:32:57 18° E 09:34:26 16° ESE visible
18 Apr 3.0 11:07:18 10° N 11:12:20 65° WNW 11:14:34 33° SW visible
19 Apr 3.3 10:29:30 10° NNE 10:34:32 60° E 10:36:24 36° SSE visible
19 Apr 4.5 12:09:19 10° NNW 12:13:02 21° WNW 12:16:32 11° WSW visible
20 Apr 4.6 09:52:10 10° NE 09:56:31 28° E 09:58:15 23° SE visible
20 Apr 3.6 11:30:49 10° N 11:35:33 41° WNW 11:38:22 22° SW visible
21 Apr 5.4 09:15:59 10° ENE 09:18:16 13° E 09:20:05 11° ESE visible
21 Apr 2.9 10:52:46 10° NNE 10:57:52 86° WNW 11:00:12 33° SSW visible
22 Apr 3.8 10:15:07 10° NNE 10:19:59 44° E 10:22:03 29° SSE visible
22 Apr 4.2 11:54:29 10° N 11:58:41 27° WNW 12:02:10 13° WSW visible
23 Apr 4.9 09:38:04 10° NE 09:41:52 21° E 09:43:52 17° ESE visible
23 Apr 3.2 11:16:11 10° N 11:21:08 54° WNW 11:24:00 24° SW visible
24 Apr 3.1 10:38:16 10° NNE 10:43:22 72° ESE 10:45:50 31° S visible
24 Apr 4.7 12:18:24 10° NNW 12:21:44 18° WNW 12:25:03 10° W visible
25 Apr 4.3 10:00:49 10° NNE 10:05:24 33° E 10:07:40 23° SE visible
25 Apr 3.8 11:39:44 10° N 11:44:19 35° WNW 11:47:48 16° WSW visible
26 Apr 5.3 09:24:11 10° NE 09:27:12 16° E 09:29:30 12° ESE visible
26 Apr 3.0 11:01:36 10° N 11:06:40 72° WNW 11:09:37 25° SSW visible
